Change the Weather History Date:

Thursday, October 11, 2012

  Actual Average Record
Temperature  
Mean Temperature 40 °F -  
Max Temperature 46 °F 46 °F 56 °F (1969)
Min Temperature 35 °F 30 °F 10 °F (1949)
Degree Days  
Heating Degree Days 24    
Moisture  
Dew Point 15 °F    
Average Humidity 35    
Maximum Humidity 44    
Minimum Humidity 27    
Precipitation  
Precipitation 0.00 in - - ()
Sea Level Pressure  
Sea Level Pressure 29.76 in    
Wind  
Wind Speed 16 mph (NE)    
Max Wind Speed 21 mph    
Max Gust Speed 36 mph    
Visibility 10 miles    
Events      
Averages and records for this station are not official NWS values.
T = Trace of Precipitation, MM = Missing Value Source: NWS Daily Summary

Daily Weather History Graph

Daily Weather History Graph

Search for Another Location

Airport or City:

Trip Planner

Search our weather history database for the weather conditions in past years. The results will help you decide how hot, cold, wet, or windy it might be!

Date:

Astronomy

Oct. 11, 2012 Rise Set
Actual Time 8:32 AM AKDT 6:55 PM AKDT
Civil Twilight 7:48 AM AKDT 7:39 PM AKDT
Nautical Twilight 6:57 AM AKDT 8:29 PM AKDT
Astronomical Twilight 6:06 AM AKDT 9:21 PM AKDT
Moon 3:18 AM AKDT (10/11) 5:28 PM AKDT (10/11)
Length of Visible Light 11h 50m
Length of Day
10h 22m
Waning Crescent, 17% of the Moon is Illuminated
Oct 11
Waning Crescent
Oct 15
New
Oct 21
First Quarter
Oct 29
Full
Nov 6
Last Quarter

Hourly Weather History & Observations

Time (AKDT) Temp. Windchill Dew Point Humidity Pressure Visibility Wind Dir Wind Speed Gust Speed Precip Events Conditions
12:16 AM 44.6 °F 36.6 °F 21.2 °F 39% 29.93 in 10.0 mi ENE 19.6 mph 33.4 mph N/A   Clear
12:36 AM 44.6 °F 36.4 °F 21.2 °F 39% 29.93 in 10.0 mi ENE 20.7 mph 33.4 mph N/A   Clear
12:56 AM 44.6 °F 36.9 °F 21.2 °F 39% 29.92 in 10.0 mi NE 18.4 mph 35.7 mph N/A   Clear
1:16 AM 44.6 °F 36.6 °F 19.4 °F 37% 29.92 in 10.0 mi NE 19.6 mph 29.9 mph N/A   Clear
1:36 AM 44.6 °F 36.9 °F 19.4 °F 37% 29.92 in 10.0 mi NE 18.4 mph 27.6 mph N/A   Clear
1:56 AM 44.6 °F 36.6 °F 19.4 °F 37% 29.91 in 10.0 mi NE 19.6 mph 31.1 mph N/A   Clear
2:16 AM 42.8 °F 34.8 °F 19.4 °F 39% 29.91 in 10.0 mi NE 17.3 mph 26.5 mph N/A   Clear
2:36 AM 42.8 °F 34.0 °F 17.6 °F 36% 29.90 in 10.0 mi NE 20.7 mph 32.2 mph N/A   Clear
2:56 AM 42.8 °F 35.1 °F 17.6 °F 36% 29.90 in 10.0 mi NE 16.1 mph 21.9 mph N/A   Clear
3:16 AM 42.8 °F 35.8 °F 15.8 °F 34% 29.89 in 10.0 mi NE 13.8 mph 28.8 mph N/A   Clear
3:36 AM 42.8 °F 34.5 °F 15.8 °F 34% 29.88 in 10.0 mi ENE 18.4 mph 29.9 mph N/A   Clear
3:56 AM 41.0 °F 32.8 °F 15.8 °F 36% 29.88 in 10.0 mi NE 16.1 mph 25.3 mph N/A   Clear
4:16 AM 41.0 °F 32.8 °F 15.8 °F 36% 29.88 in 10.0 mi NE 16.1 mph 26.5 mph N/A   Clear
4:36 AM 39.2 °F 30.5 °F 14.0 °F 36% 29.87 in 10.0 mi NE 16.1 mph 27.6 mph N/A   Clear
4:56 AM 39.2 °F 30.8 °F 14.0 °F 36% 29.86 in 10.0 mi NE 15.0 mph 25.3 mph N/A   Clear
5:16 AM 39.2 °F 30.5 °F 12.2 °F 33% 29.87 in 10.0 mi NE 16.1 mph 26.5 mph N/A   Clear
5:36 AM 39.2 °F 31.2 °F 12.2 °F 33% 29.86 in 10.0 mi NE 13.8 mph 20.7 mph N/A   Clear
5:56 AM 39.2 °F 30.2 °F 12.2 °F 33% 29.86 in 10.0 mi NE 17.3 mph 28.8 mph N/A   Clear
6:16 AM 39.2 °F 30.8 °F 12.2 °F 33% 29.84 in 10.0 mi NE 15.0 mph 28.8 mph N/A   Clear
6:36 AM 39.2 °F 30.5 °F 12.2 °F 33% 29.85 in 10.0 mi ENE 16.1 mph 26.5 mph N/A   Clear
6:56 AM 39.2 °F 29.8 °F 12.2 °F 33% 29.84 in 10.0 mi ENE 18.4 mph 25.3 mph N/A   Clear
7:16 AM 39.2 °F 30.8 °F 10.4 °F 31% 29.84 in 10.0 mi NE 15.0 mph 25.3 mph N/A   Clear
7:36 AM 39.2 °F 30.8 °F 12.2 °F 33% 29.83 in 10.0 mi ENE 15.0 mph 21.9 mph N/A   Clear
7:56 AM 39.2 °F 30.2 °F 12.2 °F 33% 29.83 in 10.0 mi ENE 17.3 mph 24.2 mph N/A   Clear
8:16 AM 39.2 °F 32.0 °F 12.2 °F 33% 29.82 in 10.0 mi ENE 11.5 mph 25.3 mph N/A   Clear
8:36 AM 37.4 °F 28.5 °F 12.2 °F 36% 29.81 in 10.0 mi ENE 15.0 mph 26.5 mph N/A   Clear
8:56 AM 37.4 °F 28.5 °F 12.2 °F 36% 29.81 in 10.0 mi ENE 15.0 mph 23.0 mph N/A   Clear
9:16 AM 39.2 °F 31.2 °F 12.2 °F 33% 29.81 in 10.0 mi ENE 13.8 mph 23.0 mph N/A   Clear
9:36 AM 39.2 °F 30.8 °F 12.2 °F 33% 29.80 in 10.0 mi ENE 15.0 mph 24.2 mph N/A   Clear
9:56 AM 39.2 °F 32.5 °F 12.2 °F 33% 29.79 in 10.0 mi ENE 10.4 mph 17.3 mph N/A   Clear
10:16 AM 39.2 °F 32.0 °F 14.0 °F 36% 29.79 in 10.0 mi ENE 11.5 mph 16.1 mph N/A   Clear
10:36 AM 41.0 °F 33.9 °F 12.2 °F 31% 29.79 in 10.0 mi ENE 12.7 mph 18.4 mph N/A   Clear
10:56 AM 41.0 °F 34.3 °F 14.0 °F 33% 29.79 in 10.0 mi ENE 11.5 mph 19.6 mph N/A   Clear
11:16 AM 42.8 °F 35.4 °F 14.0 °F 31% 29.79 in 10.0 mi ENE 15.0 mph 21.9 mph N/A   Clear
11:36 AM 42.8 °F 35.4 °F 14.0 °F 31% 29.79 in 10.0 mi ENE 15.0 mph 24.2 mph N/A   Clear
11:56 AM 42.8 °F 34.5 °F 14.0 °F 31% 29.78 in 10.0 mi ENE 18.4 mph 23.0 mph N/A   Clear
12:16 PM 42.8 °F 35.1 °F 12.2 °F 29% 29.78 in 10.0 mi ENE 16.1 mph 20.7 mph N/A   Clear
12:36 PM 44.6 °F 37.8 °F 14.0 °F 29% 29.77 in 10.0 mi NE 15.0 mph 18.4 mph N/A   Clear
12:56 PM 44.6 °F 38.4 °F 12.2 °F 27% 29.76 in 10.0 mi ENE 12.7 mph 21.9 mph N/A   Clear
1:16 PM 44.6 °F 39.2 °F 14.0 °F 29% 29.76 in 10.0 mi ENE 10.4 mph 17.3 mph N/A   Clear
1:36 PM 44.6 °F 38.1 °F 15.8 °F 31% 29.75 in 10.0 mi ENE 13.8 mph 18.4 mph N/A   Clear
1:56 PM 46.4 °F 39.8 °F 15.8 °F 29% 29.74 in 10.0 mi ENE 16.1 mph 20.7 mph N/A   Clear
2:16 PM 46.4 °F 40.4 °F 15.8 °F 29% 29.74 in 10.0 mi ENE 13.8 mph 19.6 mph N/A   Clear
2:36 PM 46.4 °F 41.5 °F 15.8 °F 29% 29.73 in 10.0 mi East 10.4 mph - N/A   Clear
2:56 PM 46.4 °F 41.9 °F 15.8 °F 29% 29.72 in 10.0 mi NE 9.2 mph - N/A   Clear
3:16 PM 46.4 °F 41.1 °F 15.8 °F 29% 29.71 in 10.0 mi NE 11.5 mph 20.7 mph N/A   Clear
3:36 PM 44.6 °F 39.7 °F 15.8 °F 31% 29.71 in 10.0 mi ENE 9.2 mph - N/A   Clear
3:56 PM 46.4 °F 41.5 °F 15.8 °F 29% 29.70 in 10.0 mi ENE 10.4 mph 17.3 mph N/A   Clear
4:16 PM 44.6 °F 38.8 °F 15.8 °F 31% 29.69 in 10.0 mi NE 11.5 mph - N/A   Clear
4:36 PM 44.6 °F 39.7 °F 15.8 °F 31% 29.68 in 10.0 mi NE 9.2 mph 18.4 mph N/A   Clear
4:56 PM 44.6 °F 37.2 °F 15.8 °F 31% 29.68 in 10.0 mi NE 17.3 mph - N/A   Clear
5:16 PM 44.6 °F 38.4 °F 15.8 °F 31% 29.67 in 10.0 mi ENE 12.7 mph 19.6 mph N/A   Clear
5:36 PM 42.8 °F 37.0 °F 15.8 °F 34% 29.66 in 10.0 mi NE 10.4 mph - N/A   Clear
5:56 PM 42.8 °F 37.5 °F 15.8 °F 34% 29.65 in 10.0 mi NE 9.2 mph 17.3 mph N/A   Clear
6:16 PM 42.8 °F 35.4 °F 15.8 °F 34% 29.65 in 10.0 mi ENE 15.0 mph 20.7 mph N/A   Clear
6:36 PM 42.8 °F 35.4 °F 15.8 °F 34% 29.64 in 10.0 mi NE 15.0 mph 19.6 mph N/A   Clear
6:56 PM 41.0 °F 33.5 °F 15.8 °F 36% 29.64 in 10.0 mi NE 13.8 mph 19.6 mph N/A   Clear
7:16 PM 39.2 °F 32.5 °F 15.8 °F 39% 29.63 in 10.0 mi NE 10.4 mph - N/A   Clear
7:36 PM 39.2 °F 32.0 °F 15.8 °F 39% 29.62 in 10.0 mi NE 11.5 mph 19.6 mph N/A   Clear
7:56 PM 39.2 °F 31.2 °F 15.8 °F 39% 29.62 in 10.0 mi NE 13.8 mph 19.6 mph N/A   Clear
8:16 PM 39.2 °F 30.8 °F 15.8 °F 39% 29.61 in 10.0 mi ENE 15.0 mph 23.0 mph N/A   Clear
8:36 PM 39.2 °F 31.2 °F 15.8 °F 39% 29.60 in 10.0 mi ENE 13.8 mph 19.6 mph N/A   Clear
8:56 PM 37.4 °F 29.8 °F 15.8 °F 41% 29.60 in 10.0 mi NE 11.5 mph 19.6 mph N/A   Clear
9:16 PM 39.2 °F 32.0 °F 15.8 °F 39% 29.60 in 10.0 mi ENE 11.5 mph 18.4 mph N/A   Clear
9:36 PM 37.4 °F 29.3 °F 15.8 °F 41% 29.59 in 10.0 mi ENE 12.7 mph 24.2 mph N/A   Clear
9:56 PM 37.4 °F 29.8 °F 15.8 °F 41% 29.58 in 10.0 mi NE 11.5 mph - N/A   Clear
10:16 PM 37.4 °F 28.9 °F 15.8 °F 41% 29.58 in 10.0 mi ENE 13.8 mph 19.6 mph N/A   Clear
10:36 PM 37.4 °F 28.9 °F 15.8 °F 41% 29.58 in 10.0 mi ENE 13.8 mph - N/A   Clear
10:56 PM 35.6 °F 28.0 °F 15.8 °F 44% 29.57 in 10.0 mi ENE 10.4 mph 17.3 mph N/A   Clear
11:16 PM 35.6 °F 27.5 °F 15.8 °F 44% 29.56 in 10.0 mi ENE 11.5 mph 17.3 mph N/A   Clear
11:36 PM 35.6 °F 27.5 °F 15.8 °F 44% 29.55 in 10.0 mi ENE 11.5 mph 17.3 mph N/A   Clear
11:56 PM 35.6 °F 28.0 °F 15.8 °F 44% 29.55 in 10.0 mi ENE 10.4 mph 16.1 mph N/A   Clear